Time,TemperatureF,DewpointF,PressureIn,WindDirection,WindDirectionDegrees,WindSpeedMPH,WindSpeedGustMPH,Humidity,HourlyPrecipIn,Conditions,Clouds,dailyrainin,SoftwareType,DateUTC
2013-03-29 00:03:00,34.0,24.0,-100.00,NNW,345,1.0,3.0,64,-99.99,,,-99.99,,2013-03-29 05:03:00,
2013-03-29 00:12:00,34.0,22.0,-100.00,NE,55,0.0,0.0,63,-99.99,,,-99.99,,2013-03-29 05:12:00,
2013-03-29 00:33:00,34.0,22.0,-100.00,NE,55,0.0,0.0,63,-99.99,,,-99.99,,2013-03-29 05:33:00,
2013-03-29 00:43:00,34.0,22.0,-100.00,NE,55,0.0,0.0,63,-99.99,,,-99.99,,2013-03-29 05:43:00,
2013-03-29 00:52:00,34.0,22.0,-100.00,NE,55,0.0,0.0,63,-99.99,,,-99.99,,2013-03-29 05:52:00,
2013-03-29 01:02:00,34.0,22.0,-100.00,NE,55,0.0,0.0,63,-99.99,,,-99.99,,2013-03-29 06:02:00,
2013-03-29 01:10:00,33.0,24.0,-100.00,NW,310,0.0,0.0,69,-99.99,,,-99.99,,2013-03-29 06:10:00,
2013-03-29 01:32:00,33.0,24.0,-100.00,NW,310,0.0,0.0,69,-99.99,,,-99.99,,2013-03-29 06:32:00,
2013-03-29 01:42:00,33.0,24.0,-100.00,NW,310,0.0,0.0,69,-99.99,,,-99.99,,2013-03-29 06:42:00,
2013-03-29 01:52:00,33.0,24.0,-100.00,NW,310,0.0,0.0,69,-99.99,,,-99.99,,2013-03-29 06:52:00,
2013-03-29 02:03:00,33.0,24.0,-100.00,NW,310,0.0,0.0,69,-99.99,,,-99.99,,2013-03-29 07:03:00,
2013-03-29 02:10:00,31.0,22.0,-100.00,NW,310,0.0,1.0,70,-99.99,,,-99.99,,2013-03-29 07:10:00,
2013-03-29 02:32:00,31.0,22.0,-100.00,NW,310,0.0,1.0,70,-99.99,,,-99.99,,2013-03-29 07:32:00,
2013-03-29 02:42:00,31.0,22.0,-100.00,NW,310,0.0,1.0,70,-99.99,,,-99.99,,2013-03-29 07:42:00,
2013-03-29 02:52:00,31.0,22.0,-100.00,NW,310,0.0,1.0,70,-99.99,,,-99.99,,2013-03-29 07:52:00,
2013-03-29 03:02:00,31.0,22.0,-100.00,NW,310,0.0,1.0,70,-99.99,,,-99.99,,2013-03-29 08:02:00,
2013-03-29 03:11:00,29.0,22.0,-100.00,WNW,300,1.0,2.0,74,-99.99,,,-99.99,,2013-03-29 08:11:00,
2013-03-29 03:32:00,29.0,22.0,-100.00,WNW,300,1.0,2.0,74,-99.99,,,-99.99,,2013-03-29 08:32:00,
2013-03-29 03:42:00,29.0,22.0,-100.00,WNW,300,1.0,2.0,74,-99.99,,,-99.99,,2013-03-29 08:42:00,
2013-03-29 03:53:00,29.0,22.0,-100.00,WNW,300,1.0,2.0,74,-99.99,,,-99.99,,2013-03-29 08:53:00,
2013-03-29 04:02:00,29.0,22.0,-100.00,WNW,300,1.0,2.0,74,-99.99,,,-99.99,,2013-03-29 09:02:00,
2013-03-29 04:11:00,27.0,20.0,-100.00,NW,325,0.0,1.0,75,-99.99,,,-99.99,,2013-03-29 09:11:00,
2013-03-29 04:33:00,27.0,20.0,-100.00,NW,325,0.0,1.0,75,-99.99,,,-99.99,,2013-03-29 09:33:00,
2013-03-29 04:43:00,27.0,20.0,-100.00,NW,325,0.0,1.0,75,-99.99,,,-99.99,,2013-03-29 09:43:00,
2013-03-29 04:52:00,27.0,20.0,-100.00,NW,325,0.0,1.0,75,-99.99,,,-99.99,,2013-03-29 09:52:00,
2013-03-29 05:02:00,27.0,20.0,-100.00,NW,325,0.0,1.0,75,-99.99,,,-99.99,,2013-03-29 10:02:00,
2013-03-29 05:11:00,26.0,19.0,-100.00,NW,320,0.0,2.0,75,-99.99,,,-99.99,,2013-03-29 10:11:00,
2013-03-29 05:33:00,26.0,19.0,-100.00,NW,320,0.0,2.0,75,-99.99,,,-99.99,,2013-03-29 10:33:00,
2013-03-29 05:42:00,26.0,19.0,-100.00,NW,320,0.0,2.0,75,-99.99,,,-99.99,,2013-03-29 10:42:00,
2013-03-29 05:53:00,26.0,19.0,-100.00,NW,320,0.0,2.0,75,-99.99,,,-99.99,,2013-03-29 10:53:00,
2013-03-29 06:03:00,26.0,19.0,-100.00,NW,320,0.0,2.0,75,-99.99,,,-99.99,,2013-03-29 11:03:00,
2013-03-29 06:11:00,27.0,19.0,-100.00,WNW,300,2.0,4.0,74,-99.99,,,-99.99,,2013-03-29 11:11:00,
2013-03-29 06:33:00,27.0,19.0,-100.00,WNW,300,2.0,4.0,74,-99.99,,,-99.99,,2013-03-29 11:33:00,
2013-03-29 06:43:00,27.0,19.0,-100.00,WNW,300,2.0,4.0,74,-99.99,,,-99.99,,2013-03-29 11:43:00,
2013-03-29 06:53:00,27.0,19.0,-100.00,WNW,300,2.0,4.0,74,-99.99,,,-99.99,,2013-03-29 11:53:00,
2013-03-29 07:03:00,27.0,19.0,-100.00,WNW,300,2.0,4.0,74,-99.99,,,-99.99,,2013-03-29 12:03:00,
2013-03-29 07:11:00,27.0,19.0,-100.00,WNW,295,2.0,4.0,72,-99.99,,,-99.99,,2013-03-29 12:11:00,
2013-03-29 07:33:00,27.0,19.0,-100.00,WNW,295,2.0,4.0,72,-99.99,,,-99.99,,2013-03-29 12:33:00,
2013-03-29 07:43:00,27.0,19.0,-100.00,WNW,295,2.0,4.0,72,-99.99,,,-99.99,,2013-03-29 12:43:00,
2013-03-29 07:53:00,27.0,19.0,-100.00,WNW,295,2.0,4.0,72,-99.99,,,-99.99,,2013-03-29 12:53:00,
2013-03-29 08:03:00,27.0,19.0,-100.00,WNW,295,2.0,4.0,72,-99.99,,,-99.99,,2013-03-29 13:03:00,
2013-03-29 08:12:00,33.0,22.0,-100.00,NNW,330,1.0,3.0,62,-99.99,,,-99.99,,2013-03-29 13:12:00,
2013-03-29 08:33:00,33.0,22.0,-100.00,NNW,330,1.0,3.0,62,-99.99,,,-99.99,,2013-03-29 13:33:00,
2013-03-29 08:43:00,33.0,22.0,-100.00,NNW,330,1.0,3.0,62,-99.99,,,-99.99,,2013-03-29 13:43:00,
2013-03-29 08:53:00,33.0,22.0,-100.00,NNW,330,1.0,3.0,62,-99.99,,,-99.99,,2013-03-29 13:53:00,
2013-03-29 09:02:00,33.0,22.0,-100.00,NNW,330,1.0,3.0,62,-99.99,,,-99.99,,2013-03-29 14:02:00,
2013-03-29 09:12:00,41.0,21.0,-100.00,NE,45,1.0,4.0,45,-99.99,,,-99.99,,2013-03-29 14:12:00,
2013-03-29 09:33:00,41.0,21.0,-100.00,NE,45,1.0,4.0,45,-99.99,,,-99.99,,2013-03-29 14:33:00,
2013-03-29 09:42:00,41.0,21.0,-100.00,NE,45,1.0,4.0,45,-99.99,,,-99.99,,2013-03-29 14:42:00,
2013-03-29 09:53:00,41.0,21.0,-100.00,NE,45,1.0,4.0,45,-99.99,,,-99.99,,2013-03-29 14:53:00,
2013-03-29 10:02:00,41.0,21.0,-100.00,NE,45,1.0,4.0,45,-99.99,,,-99.99,,2013-03-29 15:02:00,
2013-03-29 10:12:00,45.0,19.0,-100.00,East,85,2.0,5.0,35,-99.99,,,-99.99,,2013-03-29 15:12:00,
2013-03-29 10:33:00,45.0,19.0,-100.00,East,85,2.0,5.0,35,-99.99,,,-99.99,,2013-03-29 15:33:00,
2013-03-29 10:43:00,45.0,19.0,-100.00,East,85,2.0,5.0,35,-99.99,,,-99.99,,2013-03-29 15:43:00,
2013-03-29 10:53:00,45.0,19.0,-100.00,East,85,2.0,5.0,35,-99.99,,,-99.99,,2013-03-29 15:53:00,
2013-03-29 11:03:00,45.0,19.0,-100.00,East,85,2.0,5.0,35,-99.99,,,-99.99,,2013-03-29 16:03:00,
2013-03-29 11:12:00,46.0,17.0,-100.00,SW,220,2.0,4.0,31,-99.99,,,-99.99,,2013-03-29 16:12:00,
2013-03-29 11:33:00,46.0,17.0,-100.00,SW,220,2.0,4.0,31,-99.99,,,-99.99,,2013-03-29 16:33:00,
2013-03-29 11:43:00,46.0,17.0,-100.00,SW,220,2.0,4.0,31,-99.99,,,-99.99,,2013-03-29 16:43:00,
2013-03-29 11:53:00,46.0,17.0,-100.00,SW,220,2.0,4.0,31,-99.99,,,-99.99,,2013-03-29 16:53:00,
2013-03-29 12:03:00,46.0,17.0,-100.00,SW,220,2.0,4.0,31,-99.99,,,-99.99,,2013-03-29 17:03:00,
2013-03-29 12:12:00,47.0,17.0,-100.00,SW,235,2.0,6.0,29,-99.99,,,-99.99,,2013-03-29 17:12:00,
2013-03-29 12:33:00,47.0,17.0,-100.00,SW,235,2.0,6.0,29,-99.99,,,-99.99,,2013-03-29 17:33:00,
2013-03-29 12:43:00,47.0,17.0,-100.00,SW,235,2.0,6.0,29,-99.99,,,-99.99,,2013-03-29 17:43:00,
2013-03-29 12:53:00,47.0,17.0,-100.00,SW,235,2.0,6.0,29,-99.99,,,-99.99,,2013-03-29 17:53:00,
2013-03-29 13:02:00,47.0,17.0,-100.00,SW,235,2.0,6.0,29,-99.99,,,-99.99,,2013-03-29 18:02:00,
2013-03-29 13:12:00,47.0,17.0,-100.00,SE,125,6.0,7.0,29,-99.99,,,-99.99,,2013-03-29 18:12:00,
2013-03-29 13:33:00,47.0,17.0,-100.00,SE,125,6.0,7.0,29,-99.99,,,-99.99,,2013-03-29 18:33:00,
2013-03-29 13:43:00,47.0,17.0,-100.00,SE,125,6.0,7.0,29,-99.99,,,-99.99,,2013-03-29 18:43:00,
2013-03-29 13:53:00,47.0,17.0,-100.00,SE,125,6.0,7.0,29,-99.99,,,-99.99,,2013-03-29 18:53:00,
2013-03-29 14:02:00,47.0,17.0,-100.00,SE,125,6.0,7.0,29,-99.99,,,-99.99,,2013-03-29 19:02:00,
2013-03-29 14:33:00,50.0,18.0,-100.00,SE,130,1.0,4.0,28,-99.99,,,-99.99,,2013-03-29 19:33:00,
2013-03-29 14:43:00,50.0,18.0,-100.00,SE,130,1.0,4.0,28,-99.99,,,-99.99,,2013-03-29 19:43:00,
2013-03-29 14:53:00,50.0,18.0,-100.00,SE,130,1.0,4.0,28,-99.99,,,-99.99,,2013-03-29 19:53:00,
2013-03-29 15:02:00,50.0,18.0,-100.00,SE,130,1.0,4.0,28,-99.99,,,-99.99,,2013-03-29 20:02:00,
2013-03-29 15:11:00,50.0,17.0,-100.00,South,175,2.0,4.0,27,-99.99,,,-99.99,,2013-03-29 20:11:00,
2013-03-29 15:12:00,50.0,18.0,-100.00,SE,130,1.0,4.0,28,-99.99,,,-99.99,,2013-03-29 20:12:00,
2013-03-29 15:33:00,50.0,17.0,-100.00,South,175,2.0,4.0,27,-99.99,,,-99.99,,2013-03-29 20:33:00,
2013-03-29 15:42:00,50.0,17.0,-100.00,South,175,2.0,4.0,27,-99.99,,,-99.99,,2013-03-29 20:42:00,
2013-03-29 15:52:00,50.0,17.0,-100.00,South,175,2.0,4.0,27,-99.99,,,-99.99,,2013-03-29 20:52:00,
2013-03-29 16:02:00,50.0,17.0,-100.00,South,175,2.0,4.0,27,-99.99,,,-99.99,,2013-03-29 21:02:00,
2013-03-29 16:12:00,51.0,18.0,-100.00,West,260,1.0,4.0,27,-99.99,,,-99.99,,2013-03-29 21:12:00,
2013-03-29 16:33:00,51.0,18.0,-100.00,West,260,1.0,4.0,27,-99.99,,,-99.99,,2013-03-29 21:33:00,
2013-03-29 16:43:00,51.0,18.0,-100.00,West,260,1.0,4.0,27,-99.99,,,-99.99,,2013-03-29 21:43:00,
2013-03-29 16:53:00,51.0,18.0,-100.00,West,260,1.0,4.0,27,-99.99,,,-99.99,,2013-03-29 21:53:00,
2013-03-29 17:03:00,51.0,18.0,-100.00,West,260,1.0,4.0,27,-99.99,,,-99.99,,2013-03-29 22:03:00,
2013-03-29 17:12:00,52.0,20.0,-100.00,SW,225,2.0,4.0,28,-99.99,,,-99.99,,2013-03-29 22:12:00,
2013-03-29 17:34:00,52.0,20.0,-100.00,SW,225,2.0,4.0,28,-99.99,,,-99.99,,2013-03-29 22:34:00,
2013-03-29 17:43:00,52.0,20.0,-100.00,SW,225,2.0,4.0,28,-99.99,,,-99.99,,2013-03-29 22:43:00,
2013-03-29 17:54:00,52.0,20.0,-100.00,SW,225,2.0,4.0,28,-99.99,,,-99.99,,2013-03-29 22:54:00,
2013-03-29 18:03:00,52.0,20.0,-100.00,SW,225,2.0,4.0,28,-99.99,,,-99.99,,2013-03-29 23:03:00,
2013-03-29 18:12:00,50.0,19.0,-100.00,South,175,0.0,2.0,29,-99.99,,,-99.99,,2013-03-29 23:12:00,
2013-03-29 18:32:00,50.0,19.0,-100.00,South,175,0.0,2.0,29,-99.99,,,-99.99,,2013-03-29 23:32:00,
2013-03-29 18:43:00,50.0,19.0,-100.00,South,175,0.0,2.0,29,-99.99,,,-99.99,,2013-03-29 23:43:00,
2013-03-29 18:52:00,50.0,19.0,-100.00,South,175,0.0,2.0,29,-99.99,,,-99.99,,2013-03-29 23:52:00,
2013-03-29 19:03:00,50.0,19.0,-100.00,South,175,0.0,2.0,29,-99.99,,,-99.99,,2013-03-30 00:03:00,
2013-03-29 19:12:00,43.0,19.0,-100.00,SW,230,0.0,1.0,38,-99.99,,,-99.99,,2013-03-30 00:12:00,
2013-03-29 19:33:00,43.0,19.0,-100.00,SW,230,0.0,1.0,38,-99.99,,,-99.99,,2013-03-30 00:33:00,
2013-03-29 19:43:00,43.0,19.0,-100.00,SW,230,0.0,1.0,38,-99.99,,,-99.99,,2013-03-30 00:43:00,
2013-03-29 19:53:00,43.0,19.0,-100.00,SW,230,0.0,1.0,38,-99.99,,,-99.99,,2013-03-30 00:53:00,
2013-03-29 20:02:00,43.0,19.0,-100.00,SW,230,0.0,1.0,38,-99.99,,,-99.99,,2013-03-30 01:02:00,
2013-03-29 20:12:00,38.0,22.0,-100.00,SE,125,0.0,1.0,52,-99.99,,,-99.99,,2013-03-30 01:12:00,
2013-03-29 20:33:00,38.0,22.0,-100.00,SE,125,0.0,1.0,52,-99.99,,,-99.99,,2013-03-30 01:33:00,
2013-03-29 20:43:00,38.0,22.0,-100.00,SE,125,0.0,1.0,52,-99.99,,,-99.99,,2013-03-30 01:43:00,
2013-03-29 20:53:00,38.0,22.0,-100.00,SE,125,0.0,1.0,52,-99.99,,,-99.99,,2013-03-30 01:53:00,
2013-03-29 21:02:00,38.0,22.0,-100.00,SE,125,0.0,1.0,52,-99.99,,,-99.99,,2013-03-30 02:02:00,
2013-03-29 21:11:00,35.0,23.0,-100.00,ESE,110,1.0,3.0,61,-99.99,,,-99.99,,2013-03-30 02:11:00,
2013-03-29 21:33:00,35.0,23.0,-100.00,ESE,110,1.0,3.0,61,-99.99,,,-99.99,,2013-03-30 02:33:00,
2013-03-29 21:43:00,35.0,23.0,-100.00,ESE,110,1.0,3.0,61,-99.99,,,-99.99,,2013-03-30 02:43:00,
2013-03-29 21:53:00,35.0,23.0,-100.00,ESE,110,1.0,3.0,61,-99.99,,,-99.99,,2013-03-30 02:53:00,
2013-03-29 22:02:00,35.0,23.0,-100.00,ESE,110,1.0,3.0,61,-99.99,,,-99.99,,2013-03-30 03:02:00,
2013-03-29 22:11:00,33.0,23.0,-100.00,East,100,1.0,1.0,65,-99.99,,,-99.99,,2013-03-30 03:11:00,
2013-03-29 22:33:00,33.0,23.0,-100.00,East,100,1.0,1.0,65,-99.99,,,-99.99,,2013-03-30 03:33:00,
2013-03-29 22:43:00,33.0,23.0,-100.00,East,100,1.0,1.0,65,-99.99,,,-99.99,,2013-03-30 03:43:00,
2013-03-29 22:53:00,33.0,23.0,-100.00,East,100,1.0,1.0,65,-99.99,,,-99.99,,2013-03-30 03:53:00,
2013-03-29 23:02:00,33.0,23.0,-100.00,East,100,1.0,1.0,65,-99.99,,,-99.99,,2013-03-30 04:02:00,
2013-03-29 23:12:00,35.0,23.0,-100.00,SW,225,0.0,2.0,61,-99.99,,,-99.99,,2013-03-30 04:12:00,
2013-03-29 23:33:00,35.0,23.0,-100.00,SW,225,0.0,2.0,61,-99.99,,,-99.99,,2013-03-30 04:33:00,
2013-03-29 23:43:00,35.0,23.0,-100.00,SW,225,0.0,2.0,61,-99.99,,,-99.99,,2013-03-30 04:43:00,
2013-03-29 23:53:00,35.0,23.0,-100.00,SW,225,0.0,2.0,61,-99.99,,,-99.99,,2013-03-30 04:53:00,